[[{"header":{"parameterUnit":"m.s-1","parameterCategory":1,"la1":30.2991,"la2":30.254,"lo1":-89.0895,"lo2":-89.0444,"dy":0.0017,"dx":0.0017,"nx":28,"ny":28,"refTime":"2024-06-18T09:00:00:Z","depth":0,"parameterNumber":2,"parameterNumberName":"U-component_of_WINDS"},"data":[0,0,0,0,0,0,0,0,0,0,0,0,0,0,0,0,0,0,0,0,0,0,0,0,0,0,0,0,0,0,0,0,0,0,0,0,0,0,0,0,0,0,0,0,0,0,0,0,0,0,0,0,0,0,0,0,0,0,-4.3342,-4.3341,0,-4.3291,-4.329,-4.329,-4.3057,-4.3051,-4.3046,-4.3041,-4.2995,-4.2999,-4.3003,0,0,0,0,0,0,0,0,0,0,0,0,0,-4.3243,-4.3246,-4.3342,-4.3341,-4.334,-4.3291,-4.329,-4.329,-4.3058,-4.3051,-4.3044,-4.3038,-4.2994,-4.2999,-4.3004,0,0,0,0,0,0,0,0,0,0,0,0,0,-4.3249,-4.3247,-4.3342,-4.3219,-4.3207,-4.3291,-4.329,-4.3289,-4.3059,-4.3051,-4.3043,-4.3035,-4.2993,-4.2998,-4.3004,-4.3205,0,0,-4.3022,-4.3025,0,0,0,0,0,0,0,0,-4.3249,-4.3253,-4.3237,-4.3227,-4.3214,-4.3171,-4.3239,-4.3261,-4.3061,-4.3116,-4.304,-4.3031,-4.3061,-4.3061,-4.307,-4.3203,-4.3201,-4.3023,-4.3026,-4.3029,-4.303,0,0,0,0,0,0,0,-4.3249,-4.3254,-4.3322,-4.3237,-4.3223,-4.3168,-4.3159,-4.3242,-4.3135,-4.311,-4.3093,-4.309,-4.3053,-4.3065,-4.3067,-4.32,-4.3022,-4.3028,-4.3031,-4.3034,-4.3497,-4.3505,0,0,0,0,0,0,-4.3265,-4.3255,-4.3323,-4.332,-4.3211,-4.3176,-4.3167,-4.3194,-4.3134,-4.3117,-4.3097,-4.3079,-4.3059,-4.306,-4.3064,-4.3297,-4.3029,-4.3034,-4.3038,-4.3488,-4.3499,-4.3508,0,0,0,0,0,0,-4.3264,-4.3273,-4.3325,-4.3283,-4.3285,-4.3186,-4.3219,-4.3197,-4.3208,-4.3124,-4.3104,-4.3128,-4.3052,-4.3056,-4.3172,-4.3293,-4.3037,-4.3042,-4.3478,-4.3492,-4.3504,-4.3765,0,0,0,0,0,0,-4.3262,-4.3274,-4.3349,-4.3286,-4.3288,-4.3433,-4.3226,-4.3202,-4.3218,-4.3194,-4.3147,-4.3132,-4.3046,-4.3164,-4.3178,-4.3296,-4.3047,-4.3467,-4.3484,-4.35,-4.3745,-4.3786,-4.382,0,0,0,0,0,-4.3259,-4.3425,-4.3354,-4.3363,-4.3379,-4.344,-4.3442,-4.3338,-4.3229,-4.3304,-4.3249,-4.3133,-4.3276,-4.3178,-4.3191,-4.3313,-4.3459,-4.3479,-4.3498,-4.3729,-4.3778,-4.3819,0,0,0,0,0,0,-4.3508,-4.3415,-4.3334,-4.3485,-4.3472,-4.3401,-4.3492,-4.3393,-4.3412,-4.339,-4.3261,-4.3253,-4.3388,-4.3361,-4.3253,-4.3505,-4.3348,-4.3371,-4.3519,-4.3564,-4.3601,-4.3607,-4.3052,0,0,0,0,0,-4.3579,-4.3635,-4.3551,-4.3692,-4.369,-4.3593,-4.3615,-4.3536,-4.3518,-4.3513,-4.3466,-4.3456,-4.3497,-4.3529,-4.3562,-4.3738,-4.3727,-4.3829,-4.3866,-4.3897,-4.3921,-4.4014,-4.4059,-4.3573,-4.3573,-4.3573,0,0,-4.3729,-4.3685,-4.3729,-4.3741,-4.3722,-4.3785,-4.359,-4.3664,-4.371,-4.3524,-4.3631,-4.3597,-4.3576,-4.3723,-4.3786,-4.3705,-4.4051,-4.3922,-4.3948,-4.3954,-4.4039,-4.4085,-4.4126,-4.3587,-4.3584,-4.3582,0,0,-4.4035,-4.4007,-4.4121,-4.4105,-4.4077,-4.4011,-4.4039,-4.3982,-4.3952,-4.4056,-4.3918,-4.3971,-4.4046,-4.4038,-4.4043,-4.4344,-4.424,-4.4359,-4.4556,-4.4648,-4.4687,-4.472,-4.4831,-4.4872,-4.4381,-4.4382,-4.4382,0,-4.4227,-4.4314,-4.4194,-4.4277,-4.4288,-4.4119,-4.4236,-4.4226,-4.4213,-4.4225,-4.4133,-4.4224,-4.4198,-4.4342,-4.4415,-4.4424,-4.4454,-4.4366,-4.469,-4.4723,-4.4752,-4.4857,-4.4898,-4.4397,-4.4395,-4.4393,-4.4392,0,-4.4551,-4.4614,-4.471,-4.4699,-4.4719,-4.482,-4.4717,-4.4752,-4.467,-4.4615,-4.4724,-4.4686,-4.471,-4.4737,-4.4659,-4.4871,-4.4822,-4.4713,-4.4553,-4.4816,-4.4912,-4.495,-4.4418,-4.4413,-4.4408,-4.4405,0,0,-4.5017,-4.4936,-4.4974,-4.4967,-4.4922,-4.497,-4.5062,-4.5083,-4.5118,-4.5113,-4.5189,-4.5256,-4.5154,-4.516,-4.5079,-4.5159,-4.5404,-4.5039,-4.5037,-4.5112,-4.5639,-4.5726,-4.5774,-4.5332,-4.5339,-4.5345,-4.5642,0,-4.5312,-4.5464,-4.5359,-4.553,-4.5588,-4.5426,-4.5507,-4.549,-4.544,-4.5483,-4.5427,-4.5478,-4.5337,-4.5341,-4.5413,-4.536,-4.5509,-4.5336,-4.5406,-4.541,-4.5421,-4.5823,-4.5914,-4.6197,-4.5679,-4.5685,-4.5689,0,-4.5678,-4.5688,-4.5865,-4.5808,-4.5828,-4.5903,-4.5914,-4.5956,-4.5933,-4.5891,-4.5898,-4.5795,-4.5884,-4.5724,-4.5846,-4.5731,-4.5752,-4.5731,-4.5739,-4.5746,-4.557,-4.5845,-4.6284,-4.6329,-4.5747,-4.5742,-4.5738,0,-4.6005,-4.6062,-4.6175,-4.6173,-4.611,-4.6166,-4.6143,-4.6111,-4.6131,-4.6141,-4.6153,-4.6174,-4.6187,-4.6207,-4.6114,-4.6004,-4.625,-4.608,-4.6221,-4.6224,-4.6284,-4.6282,-4.6738,-4.6291,-4.629,-4.6289,-4.6289,0,-4.6349,-4.6465,-4.6321,-4.6391,-4.6516,-4.6393,-4.6521,-4.648,-4.6454,-4.6515,-4.6376,-4.6437,-4.6307,-4.6356,-4.6283,-4.6398,-4.6403,-4.6374,-4.6355,-4.639,-4.6394,-4.6406,-4.6386,-4.63,-4.6298,-4.6296,-4.6294,0,-4.6738,-4.6645,-4.6759,-4.6688,-4.6673,-4.6769,-4.6709,-4.6772,-4.6711,-4.679,-4.6802,-4.6708,-4.6757,-4.6664,-4.6702,-4.6653,-4.6815,-4.6762,-4.6823,-4.6809,-4.6956,-4.6946,-4.7439,-4.7499,-4.7011,-4.7015,-4.7019,0,-4.6965,-4.705,-4.6988,-4.7018,-4.7001,-4.7051,-4.707,-4.6951,-4.6977,-4.6957,-4.7024,-4.7061,-4.7085,-4.7172,-4.7109,-4.7137,-4.7087,-4.7258,-4.7091,-4.7124,-4.7095,-4.7093,-4.7102,-4.7294,-4.73,-4.7305,-4.7309,0,-4.7381,-4.733,-4.7361,-4.7377,-4.7403,-4.741,-4.7407,-4.744,-4.7315,-4.7351,-4.7398,-4.7417,-4.7454,-4.7495,-4.7508,-4.7485,-4.738,-4.7361,-4.7396,-4.7435,-4.7469,-4.7457,-4.6922,-4.7352,-4.7347,-4.7344,-4.7342,-4.734,-4.7698,-4.7767,-4.7734,-4.7773,-4.7758,-4.7758,-4.7815,-4.7759,-4.7796,-4.7817,-4.7744,-4.7809,-4.7784,-4.7791,-4.778,-4.783,-4.7755,-4.7804,-4.7817,-4.7833,-4.7858,-4.7456,-4.7832,-4.783,-4.7829,-4.7828,-4.7827,0,-4.811,-4.808,-4.8117,-4.8117,-4.8149,-4.804,-4.8031,-4.8066,-4.8124,-4.8109,-4.8134,-4.819,-4.8228,-4.8166,-4.8194,-4.8247,-4.8199,-4.8259,-4.8257,-4.8254,-4.7922,-4.7891,-4.8298,-4.8298,-4.8298,-4.8298,-4.8298,-4.8297,-4.8328,-4.8439,-4.8385,-4.8487,-4.8456,-4.8517,-4.8522,-4.8522,-4.8509,-4.8577,-4.8607,-4.8565,-4.8532,-4.8556,-4.8587,-4.8568,-4.8587,-4.8666,-4.8631,-4.8323,-4.8277,-4.8233,-4.8204,-4.8669,-4.867,-4.8958,-4.8961,-4.8963]},{"header":{"parameterUnit":"m.s-1","parameterCategory":1,"la1":30.2991,"la2":30.254,"lo1":-89.0895,"lo2":-89.0444,"dy":0.0017,"dx":0.0017,"nx":28,"ny":28,"refTime":"2024-06-18T09:00:00:Z","depth":0,"parameterNumber":3,"parameterNumberName":"V-component_of_WINDS"},"data":[0,0,0,0,0,0,0,0,0,0,0,0,0,0,0,0,0,0,0,0,0,0,0,0,0,0,0,0,0,0,0,0,0,0,0,0,0,0,0,0,0,0,0,0,0,0,0,0,0,0,0,0,0,0,0,0,0,0,-2.5011,-2.5012,0,-2.5093,-2.5094,-2.5095,-2.5146,-2.5146,-2.5146,-2.5147,-2.5225,-2.5227,-2.5229,0,0,0,0,0,0,0,0,0,0,0,0,0,-2.4892,-2.4894,-2.5011,-2.5012,-2.5013,-2.5093,-2.5094,-2.5095,-2.5146,-2.5146,-2.5146,-2.5147,-2.5225,-2.5227,-2.5229,0,0,0,0,0,0,0,0,0,0,0,0,0,-2.4956,-2.4895,-2.5011,-2.5048,-2.5052,-2.5093,-2.5094,-2.5095,-2.5146,-2.5146,-2.5146,-2.5147,-2.5224,-2.5226,-2.5229,-2.5237,0,0,-2.5237,-2.5239,0,0,0,0,0,0,0,0,-2.4952,-2.496,-2.5042,-2.5046,-2.505,-2.511,-2.5081,-2.5143,-2.5145,-2.511,-2.5147,-2.5147,-2.5186,-2.5192,-2.5206,-2.5241,-2.5244,-2.5238,-2.5239,-2.5241,-2.5241,0,0,0,0,0,0,0,-2.4948,-2.4957,-2.5043,-2.5043,-2.5048,-2.5059,-2.5068,-2.5093,-2.5144,-2.5113,-2.5117,-2.5126,-2.5188,-2.5203,-2.5208,-2.5245,-2.5238,-2.524,-2.5242,-2.5243,-2.5289,-2.5288,0,0,0,0,0,0,-2.4938,-2.4953,-2.5041,-2.5046,-2.5001,-2.506,-2.5071,-2.509,-2.5144,-2.5153,-2.5126,-2.5128,-2.5198,-2.5205,-2.5211,-2.5223,-2.5241,-2.5243,-2.5245,-2.5289,-2.5289,-2.5288,0,0,0,0,0,0,-2.4935,-2.4945,-2.5037,-2.5,-2.5013,-2.5062,-2.5083,-2.5091,-2.5107,-2.5154,-2.5163,-2.5132,-2.5199,-2.5207,-2.523,-2.5226,-2.5244,-2.5247,-2.529,-2.5289,-2.5288,-2.5247,0,0,0,0,0,0,-2.4932,-2.4944,-2.4949,-2.5,-2.5015,-2.5057,-2.5083,-2.5093,-2.5112,-2.5116,-2.5162,-2.517,-2.52,-2.5226,-2.5233,-2.523,-2.5249,-2.529,-2.5289,-2.5289,-2.5249,-2.5245,-2.5242,0,0,0,0,0,-2.4927,-2.4934,-2.4949,-2.496,-2.5022,-2.5056,-2.5064,-2.51,-2.5111,-2.5116,-2.5146,-2.5169,-2.5226,-2.5228,-2.5236,-2.5234,-2.529,-2.5289,-2.5289,-2.525,-2.5246,-2.5242,0,0,0,0,0,0,-2.4879,-2.4941,-2.4959,-2.4982,-2.5014,-2.5065,-2.5072,-2.5094,-2.5122,-2.5125,-2.5166,-2.5176,-2.5194,-2.5217,-2.5218,-2.5244,-2.5261,-2.5261,-2.5229,-2.5225,-2.5221,-2.5215,-2.5251,0,0,0,0,0,-2.4872,-2.4896,-2.4948,-2.4963,-2.4978,-2.5022,-2.5038,-2.5063,-2.5097,-2.511,-2.5142,-2.5172,-2.5197,-2.5212,-2.5238,-2.5253,-2.5262,-2.5255,-2.5252,-2.5248,-2.5248,-2.5256,-2.5253,-2.5285,-2.5285,-2.5285,0,0,-2.4856,-2.4892,-2.4905,-2.4955,-2.4982,-2.5004,-2.5033,-2.5056,-2.5072,-2.5113,-2.5137,-2.5161,-2.5197,-2.5216,-2.5225,-2.5235,-2.5241,-2.5247,-2.5244,-2.5246,-2.5254,-2.5251,-2.5248,-2.5284,-2.5284,-2.5285,0,0,-2.4838,-2.4869,-2.4884,-2.4911,-2.4953,-2.4982,-2.4985,-2.5033,-2.5051,-2.5076,-2.5107,-2.5126,-2.5168,-2.5192,-2.521,-2.52,-2.5221,-2.5207,-2.5187,-2.5194,-2.5192,-2.519,-2.5184,-2.5182,-2.5206,-2.5206,-2.5206,0,-2.4812,-2.4849,-2.4889,-2.491,-2.493,-2.497,-2.4984,-2.5008,-2.5054,-2.5066,-2.5077,-2.513,-2.5157,-2.5181,-2.5178,-2.5192,-2.5196,-2.5201,-2.5189,-2.5188,-2.5186,-2.5181,-2.5179,-2.5204,-2.5204,-2.5205,-2.5205,0,-2.4814,-2.4839,-2.4846,-2.4892,-2.4913,-2.493,-2.4971,-2.4987,-2.501,-2.5037,-2.506,-2.5094,-2.5126,-2.5134,-2.5156,-2.516,-2.5165,-2.5182,-2.5199,-2.518,-2.5176,-2.5175,-2.5201,-2.5202,-2.5203,-2.5203,0,0,-2.4768,-2.4836,-2.4838,-2.4858,-2.4907,-2.4925,-2.4944,-2.4977,-2.4989,-2.5019,-2.5034,-2.5069,-2.5084,-2.5104,-2.5129,-2.5135,-2.5123,-2.5151,-2.5153,-2.5143,-2.5127,-2.5113,-2.5111,-2.5138,-2.5138,-2.5138,-2.5124,0,-2.4756,-2.4793,-2.483,-2.4853,-2.4875,-2.4912,-2.4928,-2.4958,-2.4983,-2.5004,-2.5031,-2.5054,-2.5074,-2.5086,-2.5094,-2.5123,-2.512,-2.5124,-2.515,-2.515,-2.5138,-2.5109,-2.5095,-2.508,-2.5123,-2.5122,-2.5122,0,-2.4748,-2.4778,-2.4803,-2.4848,-2.4859,-2.4873,-2.4905,-2.4925,-2.4959,-2.4977,-2.4999,-2.5025,-2.5044,-2.506,-2.5085,-2.5087,-2.5099,-2.5115,-2.5115,-2.5118,-2.5134,-2.5109,-2.5077,-2.5073,-2.5121,-2.5121,-2.5121,0,-2.4709,-2.4756,-2.4778,-2.4794,-2.4848,-2.4856,-2.4878,-2.4913,-2.493,-2.4957,-2.4968,-2.4997,-2.5013,-2.5033,-2.5066,-2.5075,-2.5087,-2.5106,-2.51,-2.5099,-2.51,-2.5099,-2.5067,-2.511,-2.511,-2.511,-2.511,0,-2.4692,-2.4705,-2.4761,-2.4774,-2.4789,-2.483,-2.4843,-2.4869,-2.4899,-2.4915,-2.4949,-2.4964,-2.5007,-2.5026,-2.5051,-2.5067,-2.5074,-2.5087,-2.5093,-2.5083,-2.5081,-2.5091,-2.5092,-2.511,-2.511,-2.511,-2.511,0,-2.4651,-2.469,-2.4715,-2.4763,-2.4776,-2.4785,-2.4826,-2.4838,-2.4865,-2.4886,-2.4893,-2.4935,-2.4959,-2.4994,-2.5028,-2.5045,-2.5056,-2.5067,-2.5044,-2.5048,-2.504,-2.5039,-2.5011,-2.5009,-2.5055,-2.5055,-2.5054,0,-2.4637,-2.4649,-2.4699,-2.4713,-2.4735,-2.4757,-2.4775,-2.4814,-2.4831,-2.487,-2.4877,-2.4904,-2.4927,-2.4963,-2.4995,-2.5021,-2.5032,-2.5021,-2.5036,-2.5025,-2.503,-2.5028,-2.5028,-2.5016,-2.5016,-2.5015,-2.5015,0,-2.4607,-2.4625,-2.465,-2.4682,-2.4702,-2.4728,-2.4756,-2.4765,-2.481,-2.4827,-2.4852,-2.487,-2.4905,-2.493,-2.496,-2.4981,-2.5004,-2.501,-2.5009,-2.4998,-2.4984,-2.499,-2.5033,-2.501,-2.501,-2.5011,-2.5011,-2.5011,-2.4578,-2.4589,-2.4626,-2.4652,-2.4678,-2.4702,-2.4716,-2.4745,-2.4768,-2.48,-2.4822,-2.4846,-2.4877,-2.492,-2.4939,-2.4957,-2.4967,-2.4967,-2.4967,-2.4966,-2.4961,-2.4983,-2.4963,-2.4963,-2.4963,-2.4963,-2.4963,0,-2.4548,-2.4573,-2.4597,-2.4635,-2.4655,-2.4678,-2.4709,-2.4724,-2.4745,-2.4773,-2.4796,-2.4823,-2.4848,-2.4882,-2.4908,-2.4915,-2.4926,-2.4921,-2.492,-2.4923,-2.4952,-2.4949,-2.4911,-2.4911,-2.4911,-2.4911,-2.4911,-2.4911,-2.4534,-2.4554,-2.4576,-2.4608,-2.4633,-2.4658,-2.4673,-2.4695,-2.4718,-2.4748,-2.4769,-2.4792,-2.4822,-2.485,-2.4873,-2.4882,-2.4889,-2.488,-2.4892,-2.4917,-2.4922,-2.4926,-2.4923,-2.4881,-2.4881,-2.4862,-2.4862,-2.4862]}]]